"read_dt","SO2 (ppb)","flags","PMT voltage (V)","lamp voltage (V)","lamp intensity (Hz)","internal temp (C)","react chamber temp (C)","sample flow (l/min)","pres (mmHg)","SO2 bkg (ppb)","SO2 coefficient"
2018-08-11 00:00:00,-2.466E-01,4C000000*,-702.3,960.958,88,33.4,45.2,0.407,732.7,2.1,1.050*
2018-08-11 00:01:00,-2.395E-01,4C000000*,-702.6,960.554,90,33.5,44.9,0.407,732.7,2.1,1.050*
2018-08-11 00:02:00,-2.612E-01,4C000000*,-702.3,962.171,90,33.4,45.2,0.407,732.7,2.1,1.050*
2018-08-11 00:03:00,-2.574E-01,4C000000*,-702.6,959.341,89,33.4,44.9,0.407,732.7,2.1,1.050*
2018-08-11 00:04:00,-3.362E-01,4C000000*,-702.6,958.532,90,33.5,45.1,0.407,732.7,2.1,1.050*
2018-08-11 00:05:00,-1.501E-01,4C000000*,-702.6,960.958,91,33.5,45.1,0.407,732.7,2.1,1.050*
2018-08-11 00:06:00,-1.471E-01,4C000000*,-703.0,960.150,89,33.5,45.0,0.407,732.7,2.1,1.050*
2018-08-11 00:07:00,-2.610E-01,4C000000*,-702.6,960.150,90,33.5,45.2,0.407,732.7,2.1,1.050*
2018-08-11 00:08:00,-1.500E-01,4C000000*,-702.6,959.341,90,33.5,44.9,0.407,732.7,2.1,1.050*
2018-08-11 00:09:00,-2.278E-01,4C000000*,-702.6,960.554,89,33.5,45.1,0.407,732.7,2.1,1.050*
2018-08-11 00:10:00,-2.854E-01,4C000000*,-702.6,960.150,90,33.5,44.9,0.407,732.7,2.1,1.050*
2018-08-11 00:11:00,-2.698E-01,4C000000*,-702.3,959.745,90,33.4,45.2,0.407,732.7,2.1,1.050*
2018-08-11 00:12:00,-2.451E-01,4C000000*,-702.3,958.937,90,33.5,45.1,0.407,732.7,2.1,1.050*
2018-08-11 00:13:00,-2.911E-01,4C000000*,-702.6,960.150,90,33.5,45.0,0.407,732.7,2.1,1.050*
2018-08-11 00:14:00,-1.918E-01,4C000000*,-702.6,958.532,90,33.5,45.1,0.407,732.7,2.1,1.050*
2018-08-11 00:15:00,-1.886E-01,4C000000*,-702.6,960.554,87,33.5,44.9,0.407,732.7,2.1,1.050*
2018-08-11 00:16:00,-2.117E-01,4C000000*,-701.9,959.745,89,33.5,45.1,0.407,732.7,2.1,1.050*
2018-08-11 00:17:00,-1.879E-01,4C000000*,-702.3,959.745,90,33.5,44.9,0.407,732.7,2.1,1.050*
2018-08-11 00:18:00,-6.979E-02,4C000000*,-702.3,958.937,90,33.5,45.2,0.407,733.0,2.1,1.050*
2018-08-11 00:19:00,9.289E-02,4C000000*,-702.6,960.150,90,33.5,45.1,0.407,732.7,2.1,1.050*
2018-08-11 00:20:00,5.383E-02,4C000000*,-702.6,960.554,91,33.5,45.0,0.407,733.0,2.1,1.050*
2018-08-11 00:21:00,-5.173E-02,4C000000*,-702.3,958.937,89,33.5,45.1,0.407,732.7,2.1,1.050*
2018-08-11 00:22:00,4.875E-02,4C000000*,-702.3,959.745,89,33.5,44.9,0.407,732.7,2.1,1.050*
2018-08-11 00:23:00,-2.102E-02,4C000000*,-703.0,959.745,90,33.5,45.2,0.407,732.7,2.1,1.050*
2018-08-11 00:24:00,-3.365E-02,4C000000*,-702.3,959.745,90,33.5,44.8,0.407,732.7,2.1,1.050*
2018-08-11 00:25:00,1.519E-02,4C000000*,-702.3,958.937,89,33.5,45.2,0.407,732.7,2.1,1.050*
2018-08-11 00:26:00,1.535E-02,4C000000*,-702.3,958.532,91,33.6,45.0,0.407,732.3,2.1,1.050*
2018-08-11 00:27:00,2.236E-02,4C000000*,-702.6,960.150,91,33.6,45.1,0.407,732.7,2.1,1.050*
2018-08-11 00:28:00,-7.598E-02,4C000000*,-702.3,958.532,91,33.5,45.0,0.407,732.7,2.1,1.050*
2018-08-11 00:29:00,-6.703E-02,4C000000*,-702.3,960.554,90,33.5,44.9,0.407,732.7,2.1,1.050*
2018-08-11 00:30:00,-1.323E-01,4C000000*,-702.6,959.341,89,33.5,45.3,0.407,732.7,2.1,1.050*
2018-08-11 00:31:00,-9.296E-02,4C000000*,-702.6,959.745,90,33.5,44.9,0.407,732.7,2.1,1.050*
2018-08-11 00:32:00,-2.029E-01,4C000000*,-702.3,959.341,90,33.6,45.2,0.407,732.7,2.1,1.050*
2018-08-11 00:33:00,-1.452E-01,4C000000*,-703.0,959.745,89,33.5,44.9,0.407,732.7,2.1,1.050*
2018-08-11 00:34:00,-6.549E-04,4C000000*,-702.3,959.745,91,33.6,45.1,0.407,732.7,2.1,1.050*
2018-08-11 00:35:00,-4.094E-02,4C000000*,-702.6,960.554,90,33.5,45.0,0.407,732.7,2.1,1.050*
2018-08-11 00:36:00,-1.570E-02,4C000000*,-702.6,960.150,90,33.6,44.9,0.407,732.7,2.1,1.050*
2018-08-11 00:37:00,5.582E-02,4C000000*,-702.6,960.150,91,33.6,45.2,0.407,732.7,2.1,1.050*
2018-08-11 00:38:00,2.325E-02,4C000000*,-701.9,959.745,89,33.6,44.8,0.407,732.7,2.1,1.050*
2018-08-11 00:39:00,-1.842E-01,4C000000*,-702.3,959.341,89,33.6,45.2,0.407,732.7,2.1,1.050*
2018-08-11 00:40:00,-1.031E-01,4C000000*,-702.6,959.341,90,33.6,44.9,0.407,732.7,2.1,1.050*
2018-08-11 00:41:00,-2.559E-01,4C000000*,-701.9,960.150,89,33.6,45.1,0.407,732.7,2.1,1.050*
2018-08-11 00:42:00,-1.467E-01,4C000000*,-702.3,959.745,90,33.6,45.1,0.407,732.7,2.1,1.050*
2018-08-11 00:43:00,-1.992E-01,4C000000*,-702.6,960.958,90,33.6,45.0,0.407,732.7,2.1,1.050*
2018-08-11 00:44:00,-1.884E-01,4C000000*,-702.6,960.554,89,33.6,45.2,0.407,732.7,2.1,1.050*
2018-08-11 00:45:00,-2.579E-01,4C000000*,-701.9,959.745,89,33.6,44.9,0.407,732.7,2.1,1.050*
2018-08-11 00:46:00,-2.564E-01,4C000000*,-702.3,960.150,90,33.6,45.1,0.407,732.3,2.1,1.050*
2018-08-11 00:47:00,-2.020E-01,4C000000*,-702.3,960.150,90,33.6,44.9,0.407,732.7,2.1,1.050*
2018-08-11 00:48:00,-2.850E-01,4C000000*,-702.3,960.150,90,33.6,45.2,0.407,732.7,2.1,1.050*
2018-08-11 00:49:00,-2.143E-01,4C000000*,-702.6,960.958,89,33.6,45.1,0.407,732.3,2.1,1.050*
2018-08-11 00:50:00,-2.310E-01,4C000000*,-702.6,962.575,89,33.6,44.9,0.407,732.7,2.1,1.050*
2018-08-11 00:51:00,-2.401E-01,4C000000*,-703.0,959.745,90,33.6,45.2,0.407,732.7,2.1,1.050*
2018-08-11 00:52:00,-2.574E-01,4C000000*,-702.6,961.362,90,33.6,44.9,0.407,732.7,2.1,1.050*
2018-08-11 00:53:00,-1.890E-01,4C000000*,-702.6,960.958,90,33.7,45.1,0.407,732.7,2.1,1.050*
2018-08-11 00:54:00,-1.867E-01,4C000000*,-702.6,960.554,90,33.6,44.9,0.407,732.3,2.1,1.050*
2018-08-11 00:55:00,-2.581E-01,4C000000*,-702.3,959.745,90,33.7,45.2,0.407,732.7,2.1,1.050*
2018-08-11 00:56:00,-1.582E-01,4C000000*,-703.0,958.937,90,33.6,45.0,0.407,732.3,2.1,1.050*
2018-08-11 00:57:00,-3.085E-01,4C000000*,-703.0,960.958,91,33.7,45.0,0.407,732.3,2.1,1.050*
2018-08-11 00:58:00,-2.454E-01,4C000000*,-703.0,959.745,90,33.6,45.1,0.407,732.7,2.1,1.050*
2018-08-11 00:59:00,-3.257E-01,4C000000*,-702.3,960.150,90,33.7,44.9,0.407,732.7,2.1,1.050*
2018-08-11 01:00:00,-1.936E-01,4C000000*,-702.6,960.150,91,33.7,45.2,0.407,732.3,2.1,1.050*
2018-08-11 01:01:00,-3.396E-01,4C000000*,-702.6,960.554,91,33.7,44.9,0.407,732.3,2.1,1.050*
2018-08-11 01:02:00,-1.662E-01,4C000000*,-702.6,960.150,90,33.7,45.3,0.407,732.3,2.1,1.050*
2018-08-11 01:03:00,-2.993E-01,4C000000*,-702.6,959.745,90,33.7,45.0,0.407,732.3,2.1,1.050*
2018-08-11 01:04:00,-2.399E-01,4C000000*,-702.3,960.958,88,33.7,45.1,0.407,732.7,2.1,1.050*
2018-08-11 01:05:00,-2.812E-01,4C000000*,-702.3,960.958,89,33.7,45.1,0.407,732.3,2.1,1.050*
2018-08-11 01:06:00,-2.660E-01,4C000000*,-702.6,960.958,89,33.7,44.9,0.407,732.7,2.1,1.050*
2018-08-11 01:07:00,-2.814E-01,4C000000*,-702.6,959.745,90,33.7,45.2,0.407,732.3,2.1,1.050*
2018-08-11 01:08:00,-2.875E-01,4C000000*,-702.3,960.150,89,33.7,44.9,0.407,731.7,2.1,1.050*
2018-08-11 01:09:00,-2.705E-01,4C000000*,-702.3,960.150,90,33.8,45.3,0.407,732.7,2.1,1.050*
2018-08-11 01:10:00,-2.701E-01,4C000000*,-702.6,961.362,90,33.8,45.0,0.407,732.3,2.1,1.050*
2018-08-11 01:11:00,-2.727E-01,4C000000*,-702.6,959.745,89,33.8,45.1,0.407,732.7,2.1,1.050*
2018-08-11 01:12:00,-2.468E-01,4C000000*,-702.6,959.341,91,33.7,45.1,0.407,732.3,2.1,1.050*
2018-08-11 01:13:00,-2.504E-01,4C000000*,-702.3,960.150,90,33.8,45.0,0.407,732.7,2.1,1.050*
2018-08-11 01:14:00,-2.691E-01,4C000000*,-702.3,960.150,90,33.8,45.2,0.407,732.3,2.1,1.050*
2018-08-11 01:15:00,-1.915E-01,4C000000*,-702.6,960.554,90,33.8,44.9,0.407,732.7,2.1,1.050*
2018-08-11 01:16:00,-3.236E-01,4C000000*,-702.3,960.150,90,33.8,45.2,0.407,732.3,2.1,1.050*
2018-08-11 01:17:00,-1.979E-01,4C000000*,-702.3,960.554,89,33.8,44.9,0.407,732.3,2.1,1.050*
2018-08-11 01:18:00,-2.845E-01,4C000000*,-703.0,960.150,90,33.8,45.1,0.407,732.7,2.1,1.050*
2018-08-11 01:19:00,-3.113E-01,4C000000*,-702.6,960.150,89,33.8,45.1,0.407,732.3,2.1,1.050*
2018-08-11 01:20:00,-2.840E-01,4C000000*,-702.6,960.554,89,33.9,45.0,0.407,732.7,2.1,1.050*
2018-08-11 01:21:00,-2.205E-01,4C000000*,-702.6,960.150,90,33.8,45.2,0.407,732.3,2.1,1.050*
2018-08-11 01:22:00,-1.697E-01,4C000000*,-702.6,959.745,89,33.8,44.8,0.407,732.3,2.1,1.050*
2018-08-11 01:23:00,-1.935E-01,4C000000*,-702.3,960.150,91,33.8,45.2,0.407,732.3,2.1,1.050*
2018-08-11 01:24:00,-3.013E-01,4C000000*,-702.6,960.554,91,33.8,45.0,0.407,732.3,2.1,1.050*
2018-08-11 01:25:00,-2.437E-01,4C000000*,-702.3,959.341,90,33.8,45.1,0.407,732.7,2.1,1.050*
2018-08-11 01:26:00,-3.388E-01,4C000000*,-702.3,959.341,90,33.9,45.1,0.407,732.3,2.1,1.050*
2018-08-11 01:27:00,-2.803E-01,4C000000*,-702.6,960.150,91,33.8,44.9,0.407,732.7,2.1,1.050*
2018-08-11 01:28:00,-2.524E-01,4C000000*,-702.6,960.554,91,33.8,45.2,0.407,732.3,2.1,1.050*
2018-08-11 01:29:00,-2.217E-01,4C000000*,-702.6,960.150,91,33.8,44.9,0.407,732.3,2.1,1.050*
2018-08-11 01:30:00,-3.161E-01,4C000000*,-702.6,960.958,89,33.9,45.1,0.407,732.3,2.1,1.050*
2018-08-11 01:31:00,-2.272E-01,4C000000*,-702.6,960.150,89,33.9,44.9,0.407,732.3,2.1,1.050*
2018-08-11 01:32:00,-2.381E-01,4C000000*,-702.6,960.554,91,33.8,45.2,0.407,732.7,2.1,1.050*
2018-08-11 01:33:00,-1.807E-01,4C000000*,-702.3,959.745,90,33.9,45.1,0.407,732.3,2.1,1.050*
2018-08-11 01:34:00,-2.099E-01,4C000000*,-702.6,959.745,90,33.9,45.0,0.407,732.3,2.1,1.050*
2018-08-11 01:35:00,-2.758E-01,4C000000*,-702.6,959.745,90,33.9,45.1,0.407,732.3,2.1,1.050*
2018-08-11 01:36:00,-2.436E-01,4C000000*,-702.3,958.937,90,33.9,44.9,0.407,732.3,2.1,1.050*
2018-08-11 01:37:00,-2.802E-01,4C000000*,-702.3,959.745,89,33.9,45.2,0.407,732.3,2.1,1.050*
2018-08-11 01:38:00,-2.965E-01,4C000000*,-702.3,960.554,89,33.9,44.9,0.407,732.3,2.1,1.050*
2018-08-11 01:39:00,-2.735E-01,4C000000*,-702.6,960.554,90,33.9,45.2,0.407,732.7,2.1,1.050*
2018-08-11 01:40:00,-2.173E-01,4C000000*,-702.3,958.937,90,33.9,45.0,0.407,732.3,2.1,1.050*
2018-08-11 01:41:00,-2.414E-01,4C000000*,-702.6,959.745,90,33.9,45.0,0.407,732.3,2.1,1.050*
2018-08-11 01:42:00,-3.300E-01,4C000000*,-702.6,960.150,91,33.9,45.0,0.407,732.3,2.1,1.050*
2018-08-11 01:43:00,-3.004E-01,4C000000*,-702.3,960.150,90,34.0,44.9,0.407,732.7,2.1,1.050*
2018-08-11 01:44:00,-2.764E-01,4C000000*,-702.3,960.554,90,34.0,45.2,0.407,732.3,2.1,1.050*
2018-08-11 01:45:00,-2.098E-01,4C000000*,-702.6,960.554,90,34.0,44.9,0.407,732.3,2.1,1.050*
2018-08-11 01:46:00,-2.072E-01,4C000000*,-702.6,960.150,89,33.9,45.3,0.407,732.3,2.1,1.050*
2018-08-11 01:47:00,-2.357E-01,4C000000*,-702.6,959.341,90,34.0,45.0,0.407,732.3,2.1,1.050*
2018-08-11 01:48:00,-2.003E-01,4C000000*,-702.6,960.554,90,34.0,45.1,0.407,732.3,2.1,1.050*
2018-08-11 01:49:00,-1.909E-01,4C000000*,-702.3,960.554,90,33.9,45.0,0.407,732.3,2.1,1.050*
2018-08-11 01:50:00,-3.022E-01,4C000000*,-702.6,960.150,90,34.0,45.0,0.407,732.3,2.1,1.050*
2018-08-11 01:51:00,-2.869E-01,4C000000*,-702.6,959.745,89,34.0,45.2,0.407,732.3,2.1,1.050*
2018-08-11 01:52:00,-3.129E-01,4C000000*,-702.6,959.341,90,34.0,44.8,0.407,732.3,2.1,1.050*
2018-08-11 01:53:00,-3.511E-01,4C000000*,-702.6,958.937,89,34.0,45.2,0.407,732.7,2.1,1.050*
2018-08-11 01:54:00,-2.594E-01,4C000000*,-702.6,959.745,90,34.0,44.9,0.407,732.3,2.1,1.050*
2018-08-11 01:55:00,-2.222E-01,4C000000*,-702.3,959.745,89,34.0,45.1,0.407,732.3,2.1,1.050*
2018-08-11 01:56:00,-3.421E-01,4C000000*,-702.3,960.554,90,34.0,45.0,0.407,732.3,2.1,1.050*
2018-08-11 01:57:00,-2.457E-01,4C000000*,-702.6,960.958,89,34.0,45.0,0.407,732.3,2.1,1.050*
2018-08-11 01:58:00,-2.309E-01,4C000000*,-702.6,960.150,88,34.1,45.2,0.407,732.3,2.1,1.050*
2018-08-11 01:59:00,-3.339E-01,4C000000*,-702.6,959.341,90,34.0,44.9,0.407,732.0,2.1,1.050*
2018-08-11 02:00:00,-2.738E-01,4C000000*,-702.6,959.341,90,34.0,45.2,0.407,732.3,2.1,1.050*
2018-08-11 02:01:00,-1.996E-01,4C000000*,-702.3,959.745,89,34.0,45.0,0.407,732.3,2.1,1.050*
2018-08-11 02:02:00,-2.810E-01,4C000000*,-702.6,959.745,90,34.0,45.0,0.407,732.3,2.1,1.050*
2018-08-11 02:03:00,-2.935E-01,4C000000*,-702.6,960.958,91,34.0,45.1,0.407,732.3,2.1,1.050*
2018-08-11 02:04:00,-3.087E-01,4C000000*,-702.6,959.745,90,34.0,45.0,0.407,732.3,2.1,1.050*
2018-08-11 02:05:00,-3.772E-01,4C000000*,-702.6,960.150,89,34.0,45.2,0.407,732.0,2.1,1.050*
2018-08-11 02:06:00,-2.865E-01,4C000000*,-702.3,959.341,90,34.1,44.9,0.407,732.0,2.1,1.050*
2018-08-11 02:07:00,-3.150E-01,4C000000*,-702.3,959.745,89,34.0,45.1,0.407,732.3,2.1,1.050*
2018-08-11 02:08:00,-2.760E-01,4C000000*,-702.3,960.150,90,34.0,44.9,0.407,732.3,2.1,1.050*
2018-08-11 02:09:00,-2.846E-01,4C000000*,-702.6,959.745,91,34.1,45.2,0.407,732.3,2.1,1.050*
2018-08-11 02:10:00,-3.179E-01,4C000000*,-702.6,960.554,89,34.1,45.1,0.408,732.3,2.1,1.050*
2018-08-11 02:11:00,-3.443E-01,4C000000*,-702.6,960.150,90,34.1,45.0,0.407,732.3,2.1,1.050*
2018-08-11 02:12:00,-3.873E-01,4C000000*,-702.3,958.937,90,34.1,45.2,0.407,732.0,2.1,1.050*
2018-08-11 02:13:00,-2.519E-01,4C000000*,-703.0,960.554,89,34.1,44.9,0.407,732.3,2.1,1.050*
2018-08-11 02:14:00,-4.204E-01,4C000000*,-702.6,959.341,90,34.2,45.2,0.407,732.3,2.1,1.050*
2018-08-11 02:15:00,-1.996E-01,4C000000*,-702.6,960.150,90,34.1,44.9,0.407,732.0,2.1,1.050*
2018-08-11 02:16:00,-2.759E-01,4C000000*,-702.6,960.150,89,34.1,45.2,0.407,732.3,2.1,1.050*
2018-08-11 02:17:00,-3.071E-01,4C000000*,-702.3,959.341,89,34.1,45.1,0.407,732.0,2.1,1.050*
2018-08-11 02:18:00,-2.596E-01,4C000000*,-702.6,958.937,90,34.1,45.0,0.407,732.3,2.1,1.050*
2018-08-11 02:19:00,-3.479E-01,4C000000*,-702.6,958.937,90,34.1,45.1,0.407,732.0,2.1,1.050*
2018-08-11 02:20:00,-3.335E-01,4C000000*,-702.6,960.150,90,34.1,44.9,0.407,732.3,2.1,1.050*
2018-08-11 02:21:00,-2.305E-01,4C000000*,-702.6,958.937,90,34.2,45.2,0.407,732.3,2.1,1.050*
2018-08-11 02:22:00,-4.065E-01,4C000000*,-703.0,959.341,90,34.1,44.9,0.407,732.0,2.1,1.050*
2018-08-11 02:23:00,-2.751E-01,4C000000*,-702.6,960.150,90,34.1,45.2,0.407,732.3,2.1,1.050*
2018-08-11 02:24:00,-3.049E-01,4C000000*,-702.6,960.150,90,34.2,45.0,0.407,732.3,2.1,1.050*
2018-08-11 02:25:00,-3.299E-01,4C000000*,-703.0,961.362,89,34.2,45.0,0.407,732.3,2.1,1.050*
2018-08-11 02:26:00,-3.742E-01,4C000000*,-701.9,960.150,91,34.2,45.0,0.407,732.3,2.1,1.050*
2018-08-11 02:27:00,-3.282E-01,4C000000*,-702.3,960.150,90,34.2,44.9,0.407,732.0,2.1,1.050*
2018-08-11 02:28:00,-3.766E-01,4C000000*,-702.6,960.554,90,34.2,45.2,0.407,732.3,2.1,1.050*
2018-08-11 02:29:00,-2.758E-01,4C000000*,-702.3,960.150,91,34.2,44.9,0.407,732.0,2.1,1.050*
2018-08-11 02:30:00,-2.760E-01,4C000000*,-702.3,960.150,89,34.2,45.2,0.407,732.0,2.1,1.050*
2018-08-11 02:31:00,-3.608E-01,4C000000*,-702.6,959.745,90,34.2,45.0,0.407,732.0,2.1,1.050*
2018-08-11 02:32:00,-3.094E-01,4C000000*,-702.6,959.745,91,34.3,45.1,0.407,732.3,2.1,1.050*
2018-08-11 02:33:00,-4.060E-01,4C000000*,-702.6,958.937,90,34.2,45.0,0.407,732.0,2.1,1.050*
2018-08-11 02:34:00,-3.949E-01,4C000000*,-702.3,959.341,90,34.3,44.9,0.407,732.3,2.1,1.050*
2018-08-11 02:35:00,-2.953E-01,4C000000*,-702.3,960.554,88,34.3,45.2,0.407,732.3,2.1,1.050*
2018-08-11 02:36:00,-3.302E-01,4C000000*,-702.6,959.341,90,34.3,44.9,0.407,732.0,2.1,1.050*
2018-08-11 02:37:00,-2.741E-01,4C000000*,-702.6,960.150,90,34.3,45.2,0.407,732.3,2.1,1.050*
2018-08-11 02:38:00,-2.729E-01,4C000000*,-702.6,959.341,91,34.2,45.0,0.407,732.3,2.1,1.050*
2018-08-11 02:39:00,-2.933E-01,4C000000*,-702.6,961.362,90,34.3,45.0,0.407,732.3,2.1,1.050*
2018-08-11 02:40:00,-3.588E-01,4C000000*,-702.3,961.362,91,34.3,45.1,0.407,732.0,2.1,1.050*
2018-08-11 02:41:00,-2.985E-01,4C000000*,-702.6,960.958,90,34.3,44.9,0.407,732.0,2.1,1.050*
2018-08-11 02:42:00,-3.764E-01,4C000000*,-702.3,958.937,90,34.3,45.2,0.407,732.3,2.1,1.050*
2018-08-11 02:43:00,-3.060E-01,4C000000*,-702.3,959.745,90,34.3,44.9,0.407,732.3,2.1,1.050*
2018-08-11 02:44:00,-3.034E-01,4C000000*,-702.6,958.937,90,34.3,45.2,0.407,732.3,2.1,1.050*
2018-08-11 02:45:00,-3.161E-01,4C000000*,-702.6,960.554,91,34.3,45.0,0.407,732.3,2.1,1.050*
2018-08-11 02:46:00,-3.001E-01,4C000000*,-702.3,959.745,90,34.3,45.1,0.407,732.0,2.1,1.050*
2018-08-11 02:47:00,-3.172E-01,4C000000*,-702.3,960.150,90,34.4,45.1,0.407,732.0,2.1,1.050*
2018-08-11 02:48:00,-3.362E-01,4C000000*,-702.6,960.554,89,34.4,44.8,0.407,732.3,2.1,1.050*
2018-08-11 02:49:00,-2.750E-01,4C000000*,-702.6,958.937,90,34.3,45.2,0.407,732.0,2.1,1.050*
2018-08-11 02:50:00,-3.175E-01,4C000000*,-702.3,959.745,90,34.4,45.0,0.407,732.0,2.1,1.050*
2018-08-11 02:51:00,-3.305E-01,4C000000*,-702.6,960.150,90,34.4,45.1,0.407,732.3,2.1,1.050*
2018-08-11 02:52:00,-2.452E-01,4C000000*,-702.6,959.341,90,34.4,45.1,0.407,732.0,2.1,1.050*
2018-08-11 02:53:00,-3.617E-01,4C000000*,-702.3,960.150,90,34.4,44.9,0.407,732.3,2.1,1.050*
2018-08-11 02:54:00,-3.387E-01,4C000000*,-702.6,959.341,88,34.4,45.2,0.407,732.3,2.1,1.050*
2018-08-11 02:55:00,-2.803E-01,4C000000*,-702.6,960.150,89,34.5,44.9,0.407,732.0,2.1,1.050*
2018-08-11 02:56:00,-3.383E-01,4C000000*,-703.0,958.532,90,34.5,45.2,0.407,732.3,2.1,1.050*
2018-08-11 02:57:00,-3.629E-01,4C000000*,-702.3,959.745,90,34.4,44.9,0.407,732.3,2.1,1.050*
2018-08-11 02:58:00,-3.745E-01,4C000000*,-702.6,959.745,90,34.4,45.0,0.407,732.3,2.1,1.050*
2018-08-11 02:59:00,-3.488E-01,4C000000*,-702.6,960.554,90,34.5,45.0,0.407,732.3,2.1,1.050*
2018-08-11 03:00:00,-3.370E-01,4C000000*,-702.3,960.150,91,34.5,45.0,0.407,732.3,2.1,1.050*
2018-08-11 03:01:00,-2.433E-01,4C000000*,-702.6,959.745,90,34.5,45.3,0.407,732.0,2.1,1.050*
2018-08-11 03:02:00,-2.897E-01,4C000000*,-702.6,960.554,89,34.4,44.9,0.407,732.3,2.1,1.050*
2018-08-11 03:03:00,-4.073E-01,4C000000*,-702.3,960.150,91,34.5,45.2,0.407,732.3,2.1,1.050*
2018-08-11 03:04:00,-3.166E-01,4C000000*,-702.6,960.554,89,34.4,44.9,0.407,732.3,2.1,1.050*
2018-08-11 03:05:00,-3.163E-01,4C000000*,-702.3,958.937,91,34.5,45.1,0.407,732.3,2.1,1.050*
2018-08-11 03:06:00,-3.116E-01,4C000000*,-702.6,960.150,89,34.5,45.1,0.407,732.3,2.1,1.050*
2018-08-11 03:07:00,-2.903E-01,4C000000*,-703.0,960.554,89,34.5,45.0,0.407,732.3,2.1,1.050*
2018-08-11 03:08:00,-3.684E-01,4C000000*,-702.6,958.532,90,34.5,45.2,0.407,732.0,2.1,1.050*
2018-08-11 03:09:00,-3.228E-01,4C000000*,-702.3,958.532,90,34.5,44.9,0.407,732.0,2.1,1.050*
2018-08-11 03:10:00,-2.573E-01,4C000000*,-702.6,959.745,89,34.5,45.2,0.407,732.0,2.1,1.050*
2018-08-11 03:11:00,-3.422E-01,4C000000*,-702.3,958.937,90,34.5,45.0,0.407,732.0,2.1,1.050*
2018-08-11 03:12:00,-3.240E-01,4C000000*,-702.6,958.128,90,34.5,45.1,0.407,732.3,2.1,1.050*
2018-08-11 03:13:00,-3.176E-01,4C000000*,-702.6,960.150,88,34.5,45.1,0.407,732.0,2.1,1.050*
2018-08-11 03:14:00,-3.004E-01,4C000000*,-702.6,960.150,91,34.5,45.0,0.407,732.0,2.1,1.050*
2018-08-11 03:15:00,-3.273E-01,4C000000*,-702.6,958.532,90,34.5,45.2,0.407,732.0,2.1,1.050*
2018-08-11 03:16:00,-2.972E-01,4C000000*,-702.3,958.532,90,34.5,44.9,0.407,732.0,2.1,1.050*
2018-08-11 03:17:00,-3.461E-01,4C000000*,-702.6,960.150,89,34.5,45.2,0.407,732.0,2.1,1.050*
2018-08-11 03:18:00,-3.267E-01,4C000000*,-702.3,959.341,90,34.5,44.9,0.407,732.0,2.1,1.050*
2018-08-11 03:19:00,-2.102E-01,4C000000*,-702.6,960.554,89,34.5,45.2,0.407,732.0,2.1,1.050*
2018-08-11 03:20:00,-2.742E-01,4C000000*,-702.3,958.532,91,34.6,45.1,0.407,732.0,2.1,1.050*
2018-08-11 03:21:00,-3.585E-01,4C000000*,-702.6,959.745,91,34.5,45.0,0.407,732.0,2.1,1.050*
2018-08-11 03:22:00,-3.903E-01,4C000000*,-702.6,960.150,90,34.6,45.2,0.407,732.0,2.1,1.050*
2018-08-11 03:23:00,-3.192E-01,4C000000*,-702.3,960.150,90,34.5,44.9,0.407,732.3,2.1,1.050*
2018-08-11 03:24:00,-2.831E-01,4C000000*,-702.3,960.150,91,34.5,45.2,0.407,732.3,2.1,1.050*
2018-08-11 03:25:00,-3.383E-01,4C000000*,-702.6,960.150,90,34.5,45.0,0.407,732.0,2.1,1.050*
2018-08-11 03:26:00,-3.049E-01,4C000000*,-702.6,958.937,90,34.5,45.2,0.407,732.0,2.1,1.050*
2018-08-11 03:27:00,-2.684E-01,4C000000*,-702.3,958.532,91,34.5,45.1,0.407,732.0,2.1,1.050*
2018-08-11 03:28:00,-3.345E-01,4C000000*,-702.6,960.150,89,34.6,45.1,0.407,732.3,2.1,1.050*
2018-08-11 03:29:00,-3.786E-01,4C000000*,-702.3,960.150,91,34.7,45.1,0.407,732.0,2.1,1.050*
2018-08-11 03:30:00,-1.974E-01,4C000000*,-702.3,958.937,90,34.6,44.9,0.407,732.0,2.1,1.050*
2018-08-11 03:31:00,-2.712E-01,4C000000*,-702.6,960.150,90,34.6,45.2,0.407,732.0,2.1,1.050*
2018-08-11 03:32:00,-3.075E-01,4C000000*,-702.3,958.937,90,34.6,45.0,0.407,732.0,2.1,1.050*
2018-08-11 03:33:00,-3.317E-01,4C000000*,-702.3,959.745,91,34.6,45.0,0.408,732.0,2.1,1.050*
2018-08-11 03:34:00,-1.711E-01,4C000000*,-702.6,959.341,91,34.7,45.2,0.407,732.0,2.1,1.050*
2018-08-11 03:35:00,-3.447E-01,4C000000*,-702.3,958.937,90,34.7,44.9,0.407,732.3,2.1,1.050*
2018-08-11 03:36:00,-3.440E-01,4C000000*,-702.3,959.341,90,34.6,45.1,0.407,732.0,2.1,1.050*
2018-08-11 03:37:00,-3.030E-01,4C000000*,-702.6,958.532,89,34.7,45.0,0.407,732.0,2.1,1.050*
2018-08-11 03:38:00,-3.415E-01,4C000000*,-702.3,959.341,90,34.7,45.2,0.407,732.3,2.1,1.050*
2018-08-11 03:39:00,-3.753E-01,4C000000*,-702.6,959.341,89,34.7,45.2,0.407,732.0,2.1,1.050*
2018-08-11 03:40:00,-2.522E-01,4C000000*,-701.9,959.341,89,34.7,45.0,0.407,732.3,2.1,1.050*
2018-08-11 03:41:00,-3.251E-01,4C000000*,-701.9,959.745,91,34.7,45.2,0.407,732.0,2.1,1.050*
2018-08-11 03:42:00,-3.470E-01,4C000000*,-702.3,959.745,89,34.7,44.9,0.407,732.0,2.1,1.050*
2018-08-11 03:43:00,-2.882E-01,4C000000*,-702.6,958.532,89,34.7,45.1,0.407,732.0,2.1,1.050*
2018-08-11 03:44:00,-2.360E-01,4C000000*,-702.3,959.341,90,34.7,44.9,0.407,732.0,2.1,1.050*
2018-08-11 03:45:00,-3.111E-01,4C000000*,-702.6,958.937,89,34.7,45.2,0.407,732.3,2.1,1.050*
2018-08-11 03:46:00,-3.164E-01,4C000000*,-702.6,959.341,88,34.7,45.1,0.408,732.0,2.1,1.050*
2018-08-11 03:47:00,-2.993E-01,4C000000*,-702.6,959.745,89,34.8,45.1,0.407,732.0,2.1,1.050*
2018-08-11 03:48:00,-3.037E-01,4C000000*,-702.6,958.532,90,34.7,45.1,0.407,732.0,2.1,1.050*
2018-08-11 03:49:00,-3.996E-01,4C000000*,-702.6,959.745,90,34.8,45.0,0.407,732.0,2.1,1.050*
2018-08-11 03:50:00,-3.480E-01,4C000000*,-702.6,958.532,90,34.8,45.2,0.407,732.0,2.1,1.050*
2018-08-11 03:51:00,-3.186E-01,4C000000*,-702.3,960.554,90,34.8,44.9,0.407,732.0,2.1,1.050*
2018-08-11 03:52:00,-3.539E-01,4C000000*,-702.6,959.745,90,34.8,45.2,0.407,732.0,2.1,1.050*
2018-08-11 03:53:00,-2.983E-01,4C000000*,-702.3,958.937,90,34.7,45.0,0.407,732.0,2.1,1.050*
2018-08-11 03:54:00,-3.557E-01,4C000000*,-702.3,959.341,90,34.8,45.1,0.407,732.0,2.1,1.050*
2018-08-11 03:55:00,-2.935E-01,4C000000*,-702.3,959.341,91,34.8,45.1,0.407,732.0,2.1,1.050*
2018-08-11 03:56:00,-3.000E-01,4C000000*,-703.0,959.745,90,34.8,44.8,0.407,732.0,2.1,1.050*
2018-08-11 03:57:00,-2.841E-01,4C000000*,-702.3,959.341,91,34.7,45.2,0.407,732.0,2.1,1.050*
2018-08-11 03:58:00,-2.431E-01,4C000000*,-703.0,959.745,90,34.7,45.1,0.407,732.0,2.1,1.050*
2018-08-11 03:59:00,-2.989E-01,4C000000*,-702.6,958.937,90,34.8,45.0,0.407,732.0,2.1,1.050*
2018-08-11 04:00:00,-3.132E-01,4C000000*,-702.3,959.341,90,34.8,45.1,0.407,731.7,2.1,1.050*
2018-08-11 04:01:00,-2.864E-01,4C000000*,-702.3,960.150,89,34.8,45.0,0.407,732.0,2.1,1.050*
2018-08-11 04:02:00,-3.426E-01,4C000000*,-702.6,959.745,90,34.8,45.2,0.407,731.7,2.1,1.050*
2018-08-11 04:03:00,-3.675E-01,4C000000*,-702.3,959.341,90,34.8,44.9,0.407,732.0,2.1,1.050*
2018-08-11 04:04:00,-3.563E-01,4C000000*,-702.6,960.958,91,34.8,45.2,0.407,732.0,2.1,1.050*
2018-08-11 04:05:00,-2.585E-01,4C000000*,-702.3,960.554,90,34.9,45.2,0.407,732.0,2.1,1.050*
2018-08-11 04:06:00,-2.983E-01,4C000000*,-702.3,959.341,91,34.9,44.8,0.407,732.0,2.1,1.050*
2018-08-11 04:07:00,-4.637E-01,4C000000*,-702.3,958.937,89,34.9,45.2,0.407,732.0,2.1,1.050*
2018-08-11 04:08:00,-3.641E-01,4C000000*,-702.3,958.937,90,34.9,44.9,0.407,732.0,2.1,1.050*
2018-08-11 04:09:00,-3.691E-01,4C000000*,-702.6,960.554,91,34.8,44.9,0.407,732.0,2.1,1.050*
2018-08-11 04:10:00,-3.883E-01,4C000000*,-702.3,958.128,89,34.9,45.2,0.407,732.0,2.1,1.050*
2018-08-11 04:11:00,-3.813E-01,4C000000*,-702.6,958.937,90,34.8,44.9,0.407,732.0,2.1,1.050*
2018-08-11 04:12:00,-3.381E-01,4C000000*,-702.3,959.341,91,34.9,45.3,0.407,732.0,2.1,1.050*
2018-08-11 04:13:00,-3.351E-01,4C000000*,-702.6,959.745,92,34.9,45.0,0.407,732.0,2.1,1.050*
2018-08-11 04:14:00,-2.826E-01,4C000000*,-702.6,959.341,90,34.8,45.0,0.407,732.0,2.1,1.050*